Regional Weather Roundup
Issued by NWS

Current Version | Previous Version | Text Only | Print | Product List | Glossary On
Versions: 1 2 3 4 5 6 7 8 9 10 11 12 13 14 15 16 17 18 19 20 21 22 23 24 25 26 27 28 29 30 31 32 33 34 35 36 37 38 39 40 41 42 43 44 45 46 47 48 49 50
000
ASUS45 KBOU 221007
RWRCO

WEATHER ROUNDUP FOR COLORADO
NATIONAL WEATHER SERVICE DENVER/BOULDER CO
400 AM MDT FRI SEP 22 2017

NOTE: "FAIR" INDICATES FEW OR NO CLOUDS BELOW 12000 FEET WITH NO
SIGNIFICANT WEATHER AND/OR OBSTRUCTIONS TO VISIBILITY.

COZ001>005-013-030-031-221100-
...NORTHWEST COLORADO...

CITY           SKY/WX    TMP DP  RH WIND       PRES   REMARKS
CRAIG          FAIR      57  23  26 SW8       29.79R
HAYDEN         FAIR      55  22  27 VRB3      29.83R
MEEKER         FAIR      63  28  26 S14G24    29.81R
RABBIT EARS PA FAIR      45  19  36 S8G22     30.05S
STEAMBOAT SPGS FAIR      47  28  46 CALM      29.84R
WALDEN         FAIR      34  23  64 SE7       29.92S WCI  28
$$

COZ006>008-011-221100-
...WEST CENTRAL VALLEYS...

CITY           SKY/WX    TMP DP  RH WIND       PRES   REMARKS
GRAND JUNCTION FAIR      69  32  25 SE13      29.76S
MONTROSE       FAIR      64  32  30 SE7       29.84F
EAGLE          FAIR      47  24  40 E12       29.88R
RIFLE          FAIR      68  26  20 SW6G23    29.81R
DELTA          FAIR      69  30  23 SW5       29.82F
NUCLA          FAIR      64  32  29 S21G28    29.88S
$$

COZ017>023-064>068-221100-
...SOUTHWEST COLORADO...

CITY           SKY/WX    TMP DP  RH WIND       PRES   REMARKS
DURANGO        CLOUDY    53  35  50 N3        29.99S
CORTEZ         MOCLDY    62  37  39 SW9       29.90S
PAGOSA SPRINGS CLOUDY    50  40  68 CALM      30.05S
TELLURIDE      FAIR      55  32  41 SW21G35   30.07S
WOLF CREEK PAS CLOUDY    36  32  87 S18G35    30.28S
$$

COZ009-010-012-014-032>034-037-058>063-221100-
...CENTRAL COLORADO...

CITY           SKY/WX    TMP DP  RH WIND       PRES   REMARKS
ASPEN          FAIR      51  28  41 S8        29.92S
BUENA VISTA    FAIR      60  25  26 SW5       29.99R
COPPER MTN     FAIR      46  18  31 S24G31    30.18S
BERTHOUD PASS  FAIR      37  30  75 SW15G25   30.19S
COTTONWOOD PAS FAIR      55  27  33 S8        30.09R
GUNNISON       FAIR      40  26  57 N5        30.00R
KREMMLING      FAIR      37  27  65 CALM      29.92R
LEADVILLE      FAIR      50  17  27 S21G26    30.07R
SALIDA         FAIR      60  28  29 S8        30.04S
SUNLIGHT       FAIR      41  23  48 SW17G33   30.11R
WILKERSON PASS FAIR      43  23  45 SW26G36   30.13F
$$

COZ069>075-221100-
...SAN LUIS VALLEY/SANGRE DE CRISTO MOUNTAINS...

CITY           SKY/WX    TMP DP  RH WIND       PRES   REMARKS
ALAMOSA        FAIR      53  34  48 S14       30.01R
DEL NORTE      FAIR      56  36  47 SW21G33   30.05R
LA VETA PASS   FAIR      46  30  53 S30G46    30.22R
SAGUACHE       FAIR      37  28  70 NW6       30.04R
$$

COZ035-036-038>040-221100-
...NORTHERN COLORADO FRONT RANGE...

CITY           SKY/WX    TMP DP  RH WIND       PRES   REMARKS
DENVER INTL AP FAIR      66  24  20 S15       29.74S
DMNS CITY PARK   N/A     62  28  27 SE8       29.73S
AURORA         CLEAR     68  26  20 S12       29.77R
FRONT RANGE AP FAIR      72  27  18 S14G22    29.76R
ERIE MUNI ARPT FAIR      57  30  35 N13       29.78R
BOULDER MUN AP FAIR      55  32  41 N8        29.75R
CENTENNIAL     FAIR      68  25  19 S14       29.77R
BROOMFIELD     FAIR      64  30  27 S7        29.75S
FORT COLLINS   FAIR      50  37  61 N9        29.75R
LONGMONT       FAIR      57  37  45 N9        29.76R
$$

COZ041-046-047-076>085-087-088-221100-
...PIKES PEAK/PALMER DIVIDE AND SOUTHERN FOOTHILLS...

CITY           SKY/WX    TMP DP  RH WIND       PRES   REMARKS
COLO. SPRINGS  FAIR      62  28  27 S10       29.84R
A. F. ACADEMY  FAIR      61  24  24 CALM      29.83R
SCHRIEVER AFB  FAIR      58  26  29 S7        29.85R
CHEYENNE MTN   FAIR      66  28  23 N8G28     29.78S
ELLICOTT         N/A    N/A N/A N/A SW9       29.83R
FALCON         FAIR      55  25  31 SW3       29.90R
FORT CARSON    FAIR      69  29  22 S13G21    29.80R
LIMON          FAIR      59  28  30 S8        29.79R
MONUMENT HILL  FAIR      54  27  35 S12       29.89R
CANON CITY     CLEAR     73  34  23 W15G22    29.79R
WALSENBURG     FAIR      70  32  24 SW13G29   29.87R
TRINIDAD       FAIR      70  37  29 SW15      29.86R
$$

COZ042>045-048>051-090-091-221100-
...NORTHEAST COLORADO...

CITY           SKY/WX    TMP DP  RH WIND       PRES   REMARKS
GREELEY ARPT   FAIR      54  39  57 NE6       29.74R
AKRON          FAIR      70  25  18 S14       29.71R
BURLINGTON     FAIR      55  41  59 SE9       29.74S
WRAY           FAIR      61  32  33 S7        29.70R
YUMA           FAIR      55  30  38 S12       29.69R
STERLING       FAIR      54  36  50 N9        29.69R
HOLYOKE        FAIR      54  36  50 S10       29.68S
FORT MORGAN    FAIR      55  32  42 N15G22    29.72R
$$

COZ086-089-092>099-221100-
...SOUTHEAST COLORADO...

CITY           SKY/WX    TMP DP  RH WIND       PRES   REMARKS
PUEBLO         FAIR      73  31  21 S13       29.74S
LA JUNTA       FAIR      76  39  26 SW20G28   29.75R
LAMAR          FAIR      69  40  34 S17G26    29.72S
SPRINGFIELD      N/A     61  46  57 S16       29.84R
$$



USA.gov is the U.S. government's official web portal to all federal, state and local government web resources and services.